Weather in Leeton

Australia     34°33′02″S   146°24′18″E
temp.,
°C
wind,
m/s
gust,
m/s
humid.,
%
clouds,
%
prec.,
mm/h
press.,
hPa
HPBL,
m
11 may, tue
tue1101:00+10w49865 0.0 1013413
04:00+10nw4785100 0.0 1013377
07:00+11w4787100 0.1 1015527
10:00+11wsw5685100 0.1 1017562
13:00+12wsw4479100 0.1 1017642
16:00+13sw2372100 0.1 1018816
19:00+12w1173100 0.0 101924
22:00+12w117599 0.0 102019
12 may, wed
wed1201:00+12ssw2480100 0.1 1020160
04:00+12se4985100 0.2 1020473
07:00+11se2483100 0.0 1020157
10:00+15ese33635 0.0 1021707
13:00+18se334538 0.0 10191715
16:00+17se234873 0.0 1017795
19:00+13sse22670 0.0 101810
22:00+12ssw00740 0.0 101910
13 may, thu
thu1301:00+10ssw11790 0.0 101810
04:00+9w11830 0.0 101610
07:00+8w11870 0.0 101710
10:00+15wnw33560 0.0 1016487
13:00+19w454093 0.0 10141504
16:00+18w574342 0.0 10121563
19:00+13w36550 0.0 1014101
22:00+13wsw4114742 0.0 1014500
14 may, fri
fri1401:00+11sw711726 0.0 1016860
04:00+7sw513705 0.0 1017496
07:00+5wsw311850 0.0 1019286
10:00+12sw69490 0.0 1020950
13:00+15sw794146 0.0 10181916
16:00+14wsw694452 0.0 10181790
19:00+12wsw385210 0.0 1019686
22:00+9w355967 0.0 101990
15 may, sat
sat1501:00+12wsw5949100 0.0 1018681
04:00+12w51050100 0.0 10161118
07:00+12wnw51152100 0.0 10151142
10:00+11wsw9157273 0.6 10161527
13:00+13sw10134177 0.8 10152199
16:00+13ssw814465 0.8 10171836
19:00+10sw713570 0.0 1020927
22:00+8sw613600 0.0 1023625